Tracking 21474 objects as of 25-Sep-2020
HD Live streaming from Space Station
objects crossing your sky now

THORAD DELTA 1 DEB

Track THORAD DELTA 1 DEB now!
10-day predictions


NORAD ID: 37148
Int'l Code: 1974-089FH
Perigee: 940.0 km
Apogee: 1,011.3 km
Inclination: 101.7 °
Period: 104.4 minutes
Semi major axis: 7346 km
RCS: 0.0531 m2 (small)
Launch date: November 15, 1974
Source: United States (US)
Launch site: AIR FORCE WESTERN TEST RANGE (AFWTR)

Note: This is SATELLITE DEBRIS
aabbcc
Your satellite tracking list
Your tracking list is empty




NASA's NSSDC Master Catalog

Two Line Element Set (TLE):
1 37148U 74089FH  20269.46131094 +.00008295 +00000-0 +81444-2 0  9995
2 37148 101.6522 232.8195 0048516 273.5607 210.0551 13.78702811504928
Source of the keplerian elements: AFSPC